Helicity
61 61 53 52 65 69 79 72 75 88 83 92 100 68 36 38 43 24 15 56 6 -29 29 79 80 73 73 181 176 149 202 127 138 88 51 155 155 199 171 222 269 172 87 76 209
61 57 55 48 55 63 79 97 110 87 81 88 90 106 78 41 12 23 75 -4 -23 18 45 72 56 79 164 152 194 194 176 131 88 88 60 134 135 151 164 266 320 273 185 145 236
40 36 42 35 55 71 79 77 87 100 111 93 98 100 120 56 3 -7 83 30 2 18 49 60 50 105 148 180 193 187 165 134 112 102 105 192 192 158 151 180 147 189 184 135 154
31 34 27 35 35 58 67 97 99 97 96 114 117 109 132 112 30 66 224 164 60 100 128 53 96 145 179 157 142 193 113 128 93 159 180 197 247 179 171 113 97 105 135 167 160
59 64 62 70 71 73 81 95 85 93 109 123 130 124 143 145 133 50 115 19 64 136 74 45 72 106 163 123 119 96 140 75 54 79 116 194 202 238 125 136 99 190 176 155 181
67 75 86 89 87 78 72 70 71 70 79 88 108 123 168 48 126 57 104 76 88 51 35 42 163 88 140 127 93 92 88 93 120 147 91 123 149 192 153 139 121 186 188 162 181
73 88 83 75 79 76 72 64 61 48 49 56 63 102 137 190 160 142 192 171 66 92 35 -30 21 137 112 104 46 96 131 94 105 149 86 104 121 151 176 165 138 170 175 146 128
86 93 91 74 76 71 63 59 52 30 29 31 39 98 125 154 61 82 160 142 108 94 38 32 84 117 167 193 197 166 120 145 130 143 142 96 56 109 101 160 153 170 180 141 127
90 85 77 69 70 60 50 40 13 -1 10 7 71 97 89 60 -25 59 82 88 101 95 86 71 126 139 158 165 185 208 208 151 159 124 140 129 52 87 80 112 162 180 183 169 135
84 70 57 47 33 26 28 26 12 -18 55 47 67 150 146 73 85 31 103 101 98 128 116 101 158 214 202 244 202 235 180 200 140 153 126 142 132 88 121 86 149 176 191 173 159
67 54 39 20 14 19 48 79 60 75 100 76 58 26 66 28 81 101 96 104 119 141 186 215 321 194 201 231 265 180 208 123 86 63 107 86 105 125 87 168 162 188 194 188 174
43 27 26 14 18 17 62 76 54 89 96 33 52 43 73 108 48 7 17 99 153 169 180 237 157 150 112 293 251 174 183 159 158 153 108 160 158 150 99 83 136 136 172 178 199
22 24 25 23 16 58 66 53 50 61 101 123 100 61 71 55 51 -36 2 126 124 168 198 227 160 153 153 144 130 118 108 145 165 227 275 249 218 140 119 105 104 141 122 214 251
28 33 28 42 64 60 50 24 67 72 86 32 -2 -9 5 62 73 -14 36 147 138 127 146 213 157 151 189 206 159 123 105 101 175 148 201 177 121 106 86 130 145 98 158 194 241
37 38 29 43 119 76 49 30 47 57 69 9 24 -31 4 65 24 93 78 39 74 157 185 204 191 199 165 161 197 225 138 82 126 117 141 198 128 30 87 107 129 156 147 164 258
38 29 27 69 68 62 34 24 61 64 19 19 16 -12 -10 -12 -4 50 74 90 112 159 120 167 227 164 107 133 139 174 197 212 148 156 153 162 125 -22 93 79 113 125 167 133 261
28 19 32 65 63 35 33 50 69 61 11 -17 -40 11 22 -9 32 74 59 -38 51 101 228 136 182 222 142 115 148 194 257 287 224 234 162 52 87 72 29 105 104 125 214 192 265
30 10 63 61 34 42 56 61 101 17 -14 31 -11 62 9 12 41 55 51 59 8 141 256 176 197 180 179 181 233 217 235 283 288 323 295 211 105 55 12 -16 134 131 164 249 305
30 62 64 38 32 49 49 53 50 -1 -3 3 68 -1 0 12 6 38 18 8 -46 15 379 233 194 210 191 201 192 285 195 88 270 271 185 156 86 100 39 35 10 75 164 213 271
81 73 70 26 36 52 61 46 40 25 4 0 4 2 18 16 84 34 18 6 -5 25 133 170 126 189 166 235 260 169 240 223 163 190 180 106 84 -1 88 65 90 99 116 173 259
95 89 56 25 70 63 56 35 42 34 12 22 23 19 36 8 71 59 28 37 28 30 65 -3 147 221 114 144 191 246 230 265 184 171 155 97 105 53 11 86 68 84 139 208 302
75 73 50 34 46 37 34 67 42 34 8 -1 -9 1 27 25 50 47 37 55 50 75 79 91 49 240 251 366 162 158 194 330 270 279 237 243 238 89 63 82 50 75 93 205 263
68 39 32 55 1 15 49 74 59 26 3 16 15 3 1 24 33 46 52 23 26 52 73 70 88 113 238 342 344 192 188 185 195 181 153 190 247 119 172 170 104 68 124 159 255
58 44 32 48 50 39 43 45 35 63 21 11 24 20 6 13 14 35 34 29 31 35 81 78 141 156 69 95 146 174 167 186 161 154 175 159 171 181 71 123 151 120 104 170 271
50 59 49 36 39 34 57 57 46 18 14 -2 7 21 16 23 51 32 26 4 63 38 78 147 85 154 210 142 140 65 87 147 151 169 120 127 88 33 30 33 37 20 91 146 228
61 49 42 54 53 66 34 15 40 27 58 -8 13 29 14 5 1 35 15 13 5 39 58 104 154 150 174 185 188 138 84 66 104 120 111 86 60 86 -2 5 18 -19 47 122 162
39 44 42 20 36 44 35 26 35 -12 40 -13 15 0 7 9 50 27 -26 176 31 -10 -5 31 152 161 127 85 105 103 70 73 89 100 100 109 59 26 38 -53 -6 -8 -17 75 143
Wind_Speed
65 64 59 56 56 58 60 60 63 65 67 69 67 67 65 67 69 66 72 55 43 50 41 36 41 47 40 51 45 51 66 74 68 64 55 49 42 35 32 27 33 32 21 14 15
66 64 57 52 49 54 59 62 65 66 67 70 70 69 69 67 74 77 73 60 52 49 40 40 42 45 42 46 55 61 77 68 59 60 58 58 44 35 35 32 34 26 15 15 16
67 63 56 50 51 54 58 63 67 68 72 70 70 70 69 64 71 59 41 47 61 38 38 43 48 48 55 44 58 67 75 69 59 54 50 51 44 43 32 45 39 26 13 18 20
60 54 51 49 50 56 63 67 72 72 75 75 72 69 67 58 77 32 42 49 31 34 41 49 57 55 59 62 54 71 78 70 58 48 52 53 50 45 43 44 34 21 18 21 24
57 57 52 52 56 62 66 73 75 76 76 76 73 69 64 73 69 53 73 48 34 34 51 60 61 60 63 66 57 78 71 62 77 71 57 57 54 51 48 38 23 24 22 23 24
59 58 55 56 60 62 68 74 77 78 78 75 74 71 66 107 62 59 62 50 44 41 45 54 60 60 63 66 71 52 71 77 70 64 58 60 62 55 50 37 27 26 26 26 27
60 61 59 59 63 68 72 76 80 81 79 76 73 70 77 80 65 60 65 54 44 44 50 53 55 54 59 67 74 76 70 69 78 64 57 54 74 71 58 41 37 34 30 30 30
66 68 64 63 69 73 76 78 82 82 79 76 72 68 84 60 66 97 83 70 57 50 58 60 52 61 60 58 56 64 73 86 68 67 58 52 81 72 67 55 47 40 37 32 34
69 69 67 69 74 77 77 79 81 82 73 67 66 63 88 57 63 75 75 66 56 50 57 60 50 57 58 66 74 70 83 81 68 60 59 63 72 72 65 66 55 50 44 42 38
71 69 70 73 77 78 78 79 77 64 55 43 42 57 60 62 54 66 72 69 60 50 58 61 57 61 61 77 94 79 80 72 81 67 65 72 76 55 55 64 62 50 48 48 45
69 68 72 77 78 76 77 70 66 57 49 50 49 62 77 55 65 72 59 72 63 62 67 55 64 91 82 64 65 73 71 83 82 70 77 88 83 72 66 57 60 53 50 48 44
68 69 74 78 77 73 61 57 54 53 65 54 50 61 66 66 79 73 55 69 73 79 67 62 86 72 58 59 70 71 75 73 69 72 75 79 83 75 79 78 66 61 55 47 43
67 70 74 77 74 56 60 55 47 49 57 60 38 43 50 48 75 73 55 60 76 79 77 84 74 57 65 66 68 77 80 74 67 56 54 60 80 83 77 79 76 70 61 53 46
68 70 72 76 59 61 53 56 44 43 54 45 37 37 41 41 64 77 57 48 57 83 78 84 61 61 67 70 66 85 70 68 63 59 75 62 84 84 87 92 79 76 68 58 49
69 67 67 65 53 53 50 49 43 40 54 41 40 43 48 31 39 52 48 54 75 59 73 81 77 70 70 76 60 74 52 67 66 67 68 69 76 78 70 77 81 71 65 61 52
69 62 62 54 47 38 45 44 38 42 40 40 43 60 57 48 57 33 49 56 44 64 71 64 58 69 69 64 67 51 50 58 61 69 92 78 76 83 76 75 71 57 55 54 55
66 59 53 44 49 45 42 40 45 41 41 41 57 62 56 42 43 69 56 55 62 58 70 77 65 60 57 66 61 60 61 73 83 94 101 72 85 93 59 69 68 50 50 52 52
60 53 45 41 44 43 40 44 47 38 40 39 55 53 43 40 34 55 66 61 59 65 55 73 86 66 62 69 65 61 62 69 84 84 86 69 85 80 85 67 56 46 46 41 49
59 50 46 45 42 37 41 50 41 39 45 45 48 40 37 36 38 40 65 72 59 50 48 60 68 60 61 58 54 66 74 55 58 56 69 78 81 78 63 71 64 49 41 43 43
58 51 47 43 40 37 43 42 33 32 44 48 34 38 39 36 35 36 41 58 65 54 53 44 56 55 54 54 56 71 61 75 65 78 76 70 73 72 64 72 57 52 41 37 42
54 55 44 41 35 40 46 39 31 20 45 36 35 40 37 35 37 35 36 39 47 53 58 42 51 53 46 57 63 57 68 60 65 66 75 72 70 50 54 53 65 54 49 42 40
52 58 42 43 48 44 44 38 23 25 42 42 39 37 36 38 33 32 36 35 34 40 67 54 28 57 63 48 52 50 64 56 72 75 62 57 54 42 44 48 49 51 49 41 39
55 47 40 43 54 50 43 39 35 36 41 38 42 39 40 39 34 33 34 37 32 36 46 56 50 42 55 58 52 67 53 64 56 62 83 70 58 32 26 29 30 38 45 48 38
50 53 45 44 40 45 45 43 47 20 35 39 45 44 40 40 36 38 40 37 38 40 44 40 48 55 57 55 53 65 67 62 74 76 70 85 65 47 37 32 26 29 34 37 36
50 47 43 47 43 40 36 34 43 49 40 44 39 37 40 40 42 34 34 37 34 35 41 47 55 55 46 48 47 60 62 70 83 81 86 80 86 64 47 39 34 26 31 30 33
51 48 42 39 36 36 36 38 41 53 38 46 44 49 46 42 41 43 39 37 35 34 31 37 51 52 56 50 51 58 61 69 78 81 89 80 98 60 45 37 36 33 24 30 33
44 40 38 36 38 39 36 40 39 60 34 44 46 51 49 44 45 44 43 44 38 36 38 37 31 41 58 57 61 79 77 74 72 82 83 98 91 59 54 49 41 35 31 27 31
Wind_Direction
352 351 350 350 351 347 338 332 327 322 313 309 310 306 304 300 297 291 276 282 286 274 278 270 254 251 250 250 250 249 249 246 246 247 251 266 259 267 274 258 266 270 272 262 174
354 354 356 356 351 345 339 335 330 323 317 308 305 303 302 300 292 284 281 280 277 276 267 257 244 247 250 249 245 244 246 247 252 251 255 264 257 253 261 254 262 269 271 161 176
350 350 352 352 350 347 341 333 326 321 313 309 307 301 303 303 294 289 305 289 274 262 260 257 249 249 250 251 244 245 247 246 250 258 260 260 257 260 252 254 255 245 216 184 202
354 357 355 354 351 345 337 330 323 319 312 305 305 304 299 298 275 295 308 300 287 256 255 250 248 246 248 246 246 248 247 247 253 262 258 254 260 257 257 263 254 234 202 203 207
355 354 353 351 347 341 335 328 321 317 311 305 302 302 299 279 276 283 283 295 284 265 252 243 242 244 246 247 252 246 251 253 250 258 260 258 256 258 257 264 253 231 212 212 216
355 354 353 348 344 341 335 328 321 314 309 306 301 297 292 262 287 285 282 281 272 263 256 238 246 244 251 251 243 257 250 251 253 259 256 256 254 256 256 263 247 225 224 223 220
354 352 350 347 342 337 332 327 321 314 309 305 302 296 283 275 285 281 278 278 270 261 253 246 245 242 248 249 248 250 253 252 250 253 256 257 253 251 253 258 245 237 233 232 232
352 350 349 346 340 335 331 327 322 316 310 305 300 297 283 289 278 262 262 267 271 259 251 252 252 251 250 253 252 250 248 247 250 250 255 254 252 253 251 254 247 242 240 236 236
351 351 350 345 340 336 332 329 323 317 312 307 301 292 285 292 274 265 258 260 265 258 253 251 253 249 245 244 243 247 245 246 250 249 253 249 255 254 251 249 250 244 243 243 240
351 351 350 346 342 339 336 333 329 324 325 320 303 295 286 283 287 274 256 252 253 255 251 245 244 242 243 235 238 240 243 248 247 251 251 250 251 259 259 250 248 246 245 244 243
351 352 351 347 345 343 341 343 345 341 344 323 310 297 287 288 285 272 262 243 245 246 241 238 237 235 237 239 243 242 246 248 253 256 251 248 250 251 254 257 250 245 244 244 241
354 353 351 349 347 346 351 351 348 343 331 324 306 296 285 281 274 266 265 237 233 234 236 239 240 238 238 239 240 244 245 248 256 258 252 250 248 250 250 253 255 250 246 240 237
354 353 351 350 350 360 354 354 359 355 340 333 327 315 301 274 263 254 251 249 231 233 232 235 245 238 233 236 239 241 243 246 251 260 257 250 250 249 252 253 253 252 250 243 230
354 352 352 353 0 357 0 359 1 4 348 359 359 343 327 300 266 249 247 250 244 231 229 237 242 231 233 235 237 240 244 248 252 250 247 250 251 250 251 251 252 250 247 242 234
353 353 354 357 354 359 2 4 10 13 352 11 3 306 310 315 282 251 237 242 241 235 227 233 232 235 232 232 235 244 246 246 249 249 251 250 253 252 254 252 251 248 245 240 236
354 354 357 6 7 10 5 9 20 10 2 6 348 330 321 301 252 255 235 237 256 235 232 237 245 236 238 238 236 240 245 249 252 247 246 245 250 251 252 254 258 250 238 235 237
356 359 3 9 7 13 15 21 14 12 9 6 337 311 304 321 268 238 241 237 240 237 227 229 237 239 235 233 235 236 235 239 242 242 244 249 250 248 258 259 256 252 244 235 235
2 5 16 23 22 23 30 23 13 20 15 3 315 293 327 288 280 236 229 233 236 245 233 226 231 233 234 233 232 226 229 238 238 239 242 246 247 253 249 256 261 261 248 231 229
8 17 20 26 25 37 30 17 21 23 10 6 299 330 324 294 269 250 235 234 236 241 232 228 236 233 240 236 229 230 234 238 247 252 245 246 252 262 259 252 259 261 251 237 227
12 16 22 27 35 39 27 20 30 25 7 317 10 314 308 296 292 254 240 233 234 239 240 242 233 231 237 239 240 235 232 235 243 241 244 247 250 254 256 250 252 252 251 238 229
15 13 24 27 40 32 22 27 25 37 278 347 328 299 281 286 287 254 249 245 239 239 230 243 241 234 232 235 228 232 229 240 241 245 242 245 249 266 263 263 249 252 253 243 228
17 12 29 34 29 33 28 28 23 30 287 269 264 261 269 288 280 263 261 262 268 247 232 233 258 233 232 253 242 242 233 234 236 236 243 246 251 276 272 265 258 249 248 248 233
16 22 39 40 26 27 30 32 36 29 329 276 268 270 273 276 282 275 270 273 279 258 241 229 241 240 235 245 244 237 241 234 243 244 237 239 242 277 288 278 267 254 251 247 235
20 17 28 37 39 28 26 35 30 66 274 282 274 266 277 274 264 265 263 263 269 268 256 241 242 239 238 238 238 237 238 240 238 239 239 237 241 252 279 280 281 267 257 246 231
23 22 27 17 24 25 32 37 27 24 325 280 276 279 282 279 267 272 270 273 274 280 257 244 242 240 246 246 245 242 242 240 240 242 241 241 242 252 267 272 269 280 260 244 228
20 21 25 23 30 29 36 30 25 8 22 301 278 276 280 271 276 264 276 267 268 258 266 264 242 244 245 249 250 248 247 246 244 244 244 246 242 254 263 266 271 266 266 245 235
30 31 26 26 26 28 29 21 15 323 20 306 283 273 267 269 270 267 288 248 254 250 241 251 249 249 248 255 254 250 248 250 250 246 246 242 242 251 251 254 260 261 259 249 242